| time (UTC) | temp F | wind direction | speed MPH | gust MPH | rain 1hr in | rain 24hr in | rain mn in | humidity % | barometer mb |
| 20260504030416 | 59 | 149 | 2.0 | 3.0 | 0.00 | 0.00 | 0.00 | 63 | 1007.3 |
| 20260504025912 | 60 | 174 | 4.0 | 6.0 | 0.00 | 0.00 | 0.00 | 62 | 1007.2 |
| 20260504025409 | 60 | 164 | 2.0 | 4.0 | 0.00 | 0.00 | 0.00 | 62 | 1007.2 |
| 20260504024906 | 60 | 172 | 1.0 | 4.0 | 0.00 | 0.00 | 0.00 | 62 | 1007.5 |
| 20260504024403 | 60 | 145 | 2.0 | 3.0 | 0.00 | 0.00 | 0.00 | 62 | 1007.3 |
| 20260504023900 | 60 | 157 | 4.0 | 7.0 | 0.00 | 0.00 | 0.00 | 61 | 1007.4 |
| 20260504023356 | 60 | 155 | 2.0 | 3.0 | 0.00 | 0.00 | 0.00 | 61 | 1007.2 |
| 20260504022851 | 60 | 138 | 1.0 | 4.0 | 0.00 | 0.00 | 0.00 | 61 | 1007.2 |
| 20260504022349 | 61 | 150 | 2.0 | 3.0 | 0.00 | 0.00 | 0.00 | 61 | 1007.3 |
| 20260504021845 | 61 | 134 | 2.0 | 8.0 | 0.00 | 0.00 | 0.00 | 60 | 1007.2 |
| 20260504021342 | 61 | 182 | 3.0 | 6.0 | 0.00 | 0.00 | 0.00 | 59 | 1007.2 |
| 20260504020839 | 62 | 185 | 3.0 | 3.0 | 0.00 | 0.00 | 0.00 | 59 | 1007.2 |
| 20260504020336 | 62 | 142 | 1.0 | 3.0 | 0.00 | 0.00 | 0.00 | 59 | 1006.9 |
| 20260504015832 | 62 | 176 | 4.0 | 6.0 | 0.00 | 0.00 | 0.00 | 58 | 1006.8 |
| 20260504015328 | 62 | 156 | 2.0 | 4.0 | 0.00 | 0.00 | 0.00 | 57 | 1006.8 |
| 20260504014825 | 62 | 169 | 2.0 | 6.0 | 0.00 | 0.00 | 0.00 | 57 | 1006.8 |
| 20260504014320 | 62 | 184 | 3.0 | 6.0 | 0.00 | 0.00 | 0.00 | 57 | 1006.7 |
| 20260504013819 | 63 | 155 | 2.0 | 6.0 | 0.00 | 0.00 | 0.00 | 57 | 1006.5 |
| 20260504013316 | 63 | 171 | 4.0 | 7.0 | 0.00 | 0.00 | 0.00 | 56 | 1006.7 |
| 20260504012813 | 63 | 176 | 4.0 | 4.0 | 0.00 | 0.00 | 0.00 | 56 | 1006.7 |
| 20260504012311 | 63 | 182 | 4.0 | 8.0 | 0.00 | 0.00 | 0.00 | 55 | 1006.6 |
| 20260504011808 | 64 | 146 | 6.0 | 8.0 | 0.00 | 0.00 | 0.00 | 55 | 1006.5 |
| 20260504011304 | 64 | 191 | 5.0 | 9.0 | 0.00 | 0.00 | 0.00 | 54 | 1006.4 |
| 20260504010800 | 64 | 201 | 5.0 | 8.0 | 0.00 | 0.00 | 0.00 | 53 | 1006.4 |
| 20260504010255 | 64 | 178 | 4.0 | 6.0 | 0.00 | 0.00 | 0.00 | 53 | 1006.4 |
| 20260504005753 | 64 | 183 | 4.0 | 4.0 | 0.00 | 0.00 | 0.00 | 53 | 1006.4 |
| 20260504005249 | 65 | 146 | 4.0 | 7.0 | 0.00 | 0.00 | 0.00 | 51 | 1006.5 |
| 20260504004747 | 65 | 184 | 3.0 | 6.0 | 0.00 | 0.00 | 0.00 | 51 | 1006.4 |
| 20260504004244 | 66 | 156 | 5.0 | 8.0 | 0.00 | 0.00 | 0.00 | 50 | 1006.4 |
| 20260504003741 | 66 | 136 | 3.0 | 6.0 | 0.00 | 0.00 | 0.00 | 50 | 1006.5 |
| 20260504003238 | 66 | 225 | 3.0 | 6.0 | 0.00 | 0.00 | 0.00 | 50 | 1006.4 |
| 20260504002734 | 67 | 179 | 5.0 | 8.0 | 0.00 | 0.00 | 0.00 | 49 | 1006.5 |
| 20260504002231 | 67 | 168 | 4.0 | 13.0 | 0.00 | 0.00 | 0.00 | 48 | 1006.5 |
| 20260504001729 | 67 | 212 | 4.0 | 8.0 | 0.00 | 0.00 | 0.00 | 48 | 1006.3 |
| 20260504001226 | 67 | 170 | 4.0 | 7.0 | 0.00 | 0.00 | 0.00 | 48 | 1006.5 |
| 20260504000722 | 68 | 168 | 4.0 | 7.0 | 0.00 | 0.00 | 0.00 | 47 | 1006.6 |
| 20260504000219 | 68 | 196 | 4.0 | 6.0 | 0.00 | 0.00 | 0.00 | 46 | 1006.5 |
| 20260503235718 | 68 | 184 | 3.0 | 8.0 | 0.00 | 0.00 | 0.00 | 46 | 1006.3 |
| 20260503235214 | 68 | 192 | 6.0 | 11.0 | 0.00 | 0.00 | 0.00 | 46 | 1006.5 |
| 20260503234712 | 68 | 233 | 7.0 | 11.0 | 0.00 | 0.00 | 0.00 | 45 | 1006.4 |
| 20260503234210 | 68 | 218 | 9.0 | 15.0 | 0.00 | 0.00 | 0.00 | 45 | 1006.4 |
| 20260503233707 | 68 | 244 | 12.0 | 15.0 | 0.00 | 0.00 | 0.00 | 44 | 1006.7 |
| 20260503233203 | 68 | 168 | 5.0 | 8.0 | 0.00 | 0.00 | 0.00 | 44 | 1006.6 |
| 20260503232700 | 68 | 210 | 11.0 | 16.0 | 0.00 | 0.00 | 0.00 | 44 | 1006.6 |
| 20260503232157 | 68 | 180 | 4.0 | 11.0 | 0.00 | 0.00 | 0.00 | 44 | 1006.5 |
| 20260503231655 | 69 | 200 | 8.0 | 14.0 | 0.00 | 0.00 | 0.00 | 44 | 1006.6 |
| 20260503231151 | 69 | 186 | 8.0 | 15.0 | 0.00 | 0.00 | 0.00 | 43 | 1006.7 |
| 20260503230648 | 69 | 186 | 7.0 | 14.0 | 0.00 | 0.00 | 0.00 | 44 | 1006.5 |
| 20260503230145 | 69 | 212 | 12.0 | 16.0 | 0.00 | 0.00 | 0.00 | 43 | 1006.6 |
| 20260503225642 | 69 | 207 | 6.0 | 9.0 | 0.00 | 0.00 | 0.00 | 44 | 1006.8 |
| 20260503225142 | 69 | 211 | 9.0 | 14.0 | 0.00 | 0.00 | 0.00 | 45 | 1006.7 |
| 20260503224640 | 69 | 190 | 6.0 | 9.0 | 0.00 | 0.00 | 0.00 | 44 | 1006.7 |
| 20260503224137 | 68 | 210 | 8.0 | 9.0 | 0.00 | 0.00 | 0.00 | 44 | 1006.8 |
| 20260503223635 | 68 | 155 | 14.0 | 18.0 | 0.00 | 0.00 | 0.00 | 44 | 1006.8 |
| 20260503223131 | 68 | 202 | 10.0 | 13.0 | 0.00 | 0.00 | 0.00 | 44 | 1006.8 |
| 20260503222629 | 68 | 149 | 10.0 | 15.0 | 0.00 | 0.00 | 0.00 | 43 | 1007.2 |
| 20260503222126 | 68 | 184 | 9.0 | 16.0 | 0.00 | 0.00 | 0.00 | 44 | 1007.1 |
| 20260503221625 | 68 | 146 | 6.0 | 10.0 | 0.00 | 0.00 | 0.00 | 44 | 1007.1 |
| 20260503221122 | 68 | 168 | 7.0 | 11.0 | 0.00 | 0.00 | 0.00 | 43 | 1007.3 |
| 20260503220618 | 68 | 196 | 4.0 | 16.0 | 0.00 | 0.00 | 0.00 | 43 | 1007.1 |
| 20260503220115 | 68 | 179 | 10.0 | 14.0 | 0.00 | 0.00 | 0.00 | 43 | 1007.2 |
| 20260503215612 | 68 | 171 | 7.0 | 11.0 | 0.00 | 0.00 | 0.00 | 43 | 1007.3 |
| 20260503215109 | 67 | 171 | 7.0 | 14.0 | 0.00 | 0.00 | 0.00 | 45 | 1007.4 |
| 20260503214607 | 67 | 181 | 11.0 | 21.0 | 0.00 | 0.00 | 0.00 | 44 | 1007.4 |
| 20260503214103 | 67 | 188 | 11.0 | 15.0 | 0.00 | 0.00 | 0.00 | 45 | 1007.5 |
| 20260503213602 | 67 | 186 | 13.0 | 15.0 | 0.00 | 0.00 | 0.00 | 43 | 1007.6 |
| 20260503213058 | 66 | 149 | 9.0 | 17.0 | 0.00 | 0.00 | 0.00 | 44 | 1007.7 |
| 20260503212556 | 65 | 203 | 12.0 | 16.0 | 0.00 | 0.00 | 0.00 | 45 | 1007.8 |
| 20260503212053 | 66 | 192 | 9.0 | 21.0 | 0.00 | 0.00 | 0.00 | 44 | 1007.7 |
| 20260503211550 | 66 | 231 | 14.0 | 21.0 | 0.00 | 0.00 | 0.00 | 43 | 1008.1 |
| 20260503211045 | 66 | 238 | 9.0 | 15.0 | 0.00 | 0.00 | 0.00 | 44 | 1008.0 |
| 20260503210542 | 68 | 168 | 12.0 | 18.0 | 0.00 | 0.00 | 0.00 | 42 | 1008.1 |
| 20260503210038 | 67 | 145 | 10.0 | 16.0 | 0.00 | 0.00 | 0.00 | 43 | 1008.2 |
| 20260503205535 | 66 | 210 | 9.0 | 22.0 | 0.00 | 0.00 | 0.00 | 43 | 1008.1 |
| 20260503205032 | 66 | 163 | 11.0 | 23.0 | 0.00 | 0.00 | 0.00 | 42 | 1008.5 |
| 20260503204528 | 66 | 189 | 10.0 | 31.0 | 0.00 | 0.00 | 0.00 | 42 | 1008.6 |
| 20260503204025 | 66 | 147 | 13.0 | 18.0 | 0.00 | 0.00 | 0.00 | 41 | 1008.6 |
| 20260503203523 | 65 | 170 | 11.0 | 21.0 | 0.00 | 0.00 | 0.00 | 41 | 1008.7 |
| 20260503203020 | 64 | 179 | 14.0 | 17.0 | 0.00 | 0.00 | 0.00 | 43 | 1008.8 |
| 20260503202517 | 66 | 162 | 14.0 | 17.0 | 0.00 | 0.00 | 0.00 | 43 | 1008.8 |
| 20260503202015 | 65 | 152 | 10.0 | 19.0 | 0.00 | 0.00 | 0.00 | 42 | 1008.9 |
| 20260503201514 | 67 | 156 | 13.0 | 23.0 | 0.00 | 0.00 | 0.00 | 41 | 1009.0 |
| 20260503201010 | 66 | 151 | 7.0 | 11.0 | 0.00 | 0.00 | 0.00 | 44 | 1009.1 |
| 20260503200506 | 66 | 176 | 11.0 | 17.0 | 0.00 | 0.00 | 0.00 | 43 | 1009.2 |
| 20260503200003 | 64 | 163 | 12.0 | 19.0 | 0.00 | 0.00 | 0.00 | 43 | 1009.1 |
| 20260503195500 | 64 | 166 | 11.0 | 19.0 | 0.00 | 0.00 | 0.00 | 45 | 1009.0 |
| 20260503194956 | 63 | 191 | 12.0 | 24.0 | 0.00 | 0.00 | 0.00 | 47 | 1009.4 |
| 20260503194454 | 64 | 157 | 20.0 | 24.0 | 0.00 | 0.00 | 0.00 | 47 | 1009.3 |
| 20260503193949 | 63 | 201 | 20.0 | 25.0 | 0.00 | 0.00 | 0.00 | 48 | 1009.5 |
| 20260503193445 | 63 | 192 | 13.0 | 22.0 | 0.00 | 0.00 | 0.00 | 50 | 1009.7 |
| 20260503192940 | 63 | 170 | 8.0 | 16.0 | 0.00 | 0.00 | 0.00 | 51 | 1009.7 |
| 20260503192437 | 62 | 160 | 12.0 | 18.0 | 0.00 | 0.00 | 0.00 | 54 | 1009.5 |
| 20260503191933 | 61 | 206 | 9.0 | 18.0 | 0.00 | 0.00 | 0.00 | 57 | 1009.7 |
| 20260503191431 | 61 | 199 | 11.0 | 24.0 | 0.00 | 0.00 | 0.00 | 58 | 1009.6 |
| 20260503190927 | 61 | 191 | 15.0 | 21.0 | 0.00 | 0.00 | 0.00 | 56 | 1009.8 |
| 20260503190424 | 60 | 142 | 14.0 | 22.0 | 0.00 | 0.00 | 0.00 | 56 | 1009.9 |
| 20260503185921 | 60 | 177 | 10.0 | 22.0 | 0.00 | 0.00 | 0.00 | 57 | 1010.0 |
| 20260503185418 | 59 | 202 | 10.0 | 17.0 | 0.00 | 0.00 | 0.00 | 58 | 1010.2 |
| 20260503184916 | 59 | 184 | 14.0 | 21.0 | 0.00 | 0.00 | 0.00 | 59 | 1010.1 |
| 20260503184414 | 59 | 155 | 10.0 | 21.0 | 0.00 | 0.00 | 0.00 | 61 | 1010.2 |
| 20260503183910 | 58 | 177 | 8.0 | 17.0 | 0.00 | 0.00 | 0.00 | 62 | 1010.4 |
| 20260503183407 | 58 | 170 | 9.0 | 27.0 | 0.00 | 0.00 | 0.00 | 60 | 1010.5 |
| 20260503182904 | 57 | 163 | 8.0 | 19.0 | 0.00 | 0.00 | 0.00 | 61 | 1010.5 |
| 20260503182403 | 57 | 152 | 10.0 | 19.0 | 0.00 | 0.00 | 0.00 | 60 | 1010.7 |
| 20260503181859 | 56 | 162 | 10.0 | 22.0 | 0.00 | 0.00 | 0.00 | 63 | 1010.7 |
| 20260503181356 | 56 | 169 | 6.0 | 23.0 | 0.00 | 0.00 | 0.00 | 65 | 1010.9 |
| 20260503180853 | 56 | 159 | 10.0 | 16.0 | 0.00 | 0.00 | 0.00 | 64 | 1011.0 |
| 20260503180351 | 55 | 144 | 14.0 | 19.0 | 0.00 | 0.00 | 0.00 | 64 | 1010.9 |
| 20260503175847 | 55 | 144 | 8.0 | 19.0 | 0.00 | 0.00 | 0.00 | 65 | 1011.3 |
| 20260503175345 | 55 | 160 | 7.0 | 14.0 | 0.00 | 0.00 | 0.00 | 66 | 1011.3 |
| 20260503174840 | 54 | 159 | 9.0 | 14.0 | 0.00 | 0.00 | 0.00 | 69 | 1011.7 |
| 20260503174340 | 54 | 173 | 10.0 | 16.0 | 0.00 | 0.00 | 0.00 | 70 | 1011.7 |
| 20260503173839 | 53 | 174 | 8.0 | 15.0 | 0.00 | 0.00 | 0.00 | 70 | 1012.0 |
| 20260503173336 | 52 | 186 | 9.0 | 13.0 | 0.00 | 0.00 | 0.00 | 74 | 1012.4 |
| 20260503172833 | 52 | 149 | 8.0 | 15.0 | 0.00 | 0.00 | 0.00 | 75 | 1012.5 |
| 20260503172331 | 52 | 169 | 10.0 | 16.0 | 0.00 | 0.00 | 0.00 | 75 | 1012.7 |
| 20260503171832 | 52 | 184 | 9.0 | 16.0 | 0.00 | 0.00 | 0.00 | 77 | 1012.8 |
| 20260503171329 | 52 | 186 | 12.0 | 16.0 | 0.00 | 0.00 | 0.00 | 76 | 1013.2 |
| 20260503170826 | 52 | 160 | 15.0 | 18.0 | 0.00 | 0.00 | 0.00 | 77 | 1013.3 |
| 20260503170322 | 51 | 162 | 11.0 | 17.0 | 0.00 | 0.00 | 0.00 | 76 | 1013.4 |
| 20260503150715 | 54 | 220 | 12.0 | 16.0 | 0.00 | 0.00 | 0.00 | 59 | 1014.5 |
| 20260503150211 | 53 | 216 | 12.0 | 14.0 | 0.00 | 0.00 | 0.00 | 62 | 1014.4 |
| 20260503140135 | 51 | 172 | 4.0 | 13.0 | 0.00 | 0.00 | 0.00 | 61 | 1014.9 |
| 20260503131105 | 50 | 206 | 5.0 | 8.0 | 0.00 | 0.00 | 0.00 | 62 | 1015.0 |
| 20260503130602 | 49 | 183 | 6.0 | 11.0 | 0.00 | 0.00 | 0.00 | 62 | 1015.1 |
| 20260503110452 | 46 | 166 | 5.0 | 7.0 | 0.00 | 0.00 | 0.00 | 65 | 1014.9 |
| 20260503090344 | 44 | 180 | 3.0 | 6.0 | 0.00 | 0.00 | 0.00 | 63 | 1015.2 |
| 20260503081311 | 44 | 147 | 3.0 | 6.0 | 0.00 | 0.00 | 0.00 | 62 | 1015.6 |
| 20260503080807 | 44 | 172 | 3.0 | 4.0 | 0.00 | 0.00 | 0.00 | 63 | 1015.5 |
| 20260503080305 | 44 | 177 | 3.0 | 6.0 | 0.00 | 0.00 | 0.00 | 62 | 1015.6 |
| 20260503072741 | 44 | 156 | 2.0 | 4.0 | 0.00 | 0.00 | 0.00 | 64 | 1015.6 |
| 20260503072238 | 44 | 175 | 3.0 | 3.0 | 0.00 | 0.00 | 0.00 | 63 | 1015.6 |
| 20260503071734 | 43 | 145 | 2.0 | 2.0 | 0.00 | 0.00 | 0.00 | 64 | 1015.7 |
| 20260503071231 | 44 | 147 | 1.0 | 3.0 | 0.00 | 0.00 | 0.00 | 64 | 1015.7 |
| 20260503070728 | 44 | 136 | 3.0 | 3.0 | 0.00 | 0.00 | 0.00 | 63 | 1015.8 |
| 20260503070226 | 44 | 201 | 5.0 | 6.0 | 0.00 | 0.00 | 0.00 | 63 | 1015.9 |
| 20260503060151 | 45 | 168 | 2.0 | 4.0 | 0.00 | 0.00 | 0.00 | 60 | 1016.3 |
| 20260503054638 | 45 | 155 | 3.0 | 4.0 | 0.00 | 0.00 | 0.00 | 60 | 1016.5 |
| 20260503054135 | 45 | 160 | 2.0 | 3.0 | 0.00 | 0.00 | 0.00 | 60 | 1016.5 |
| 20260503053633 | 45 | 167 | 3.0 | 4.0 | 0.00 | 0.00 | 0.00 | 60 | 1016.5 |
| 20260503053132 | 45 | 164 | 2.0 | 3.0 | 0.00 | 0.00 | 0.00 | 60 | 1016.6 |
| 20260503052627 | 44 | 156 | 2.0 | 3.0 | 0.00 | 0.00 | 0.00 | 62 | 1016.7 |
| 20260503052124 | 45 | 186 | 2.0 | 3.0 | 0.00 | 0.00 | 0.00 | 63 | 1016.7 |
| 20260503051619 | 45 | 146 | 3.0 | 3.0 | 0.00 | 0.00 | 0.00 | 61 | 1016.7 |
| 20260503051117 | 45 | 144 | 1.0 | 3.0 | 0.00 | 0.00 | 0.00 | 62 | 1016.8 |
| 20260503050613 | 45 | 148 | 2.0 | 3.0 | 0.00 | 0.00 | 0.00 | 62 | 1016.8 |
| 20260503050110 | 45 | 159 | 2.0 | 4.0 | 0.00 | 0.00 | 0.00 | 62 | 1016.8 |
| 20260503045608 | 44 | 167 | 2.0 | 4.0 | 0.00 | 0.00 | 0.00 | 62 | 1017.0 |
| 20260503045105 | 44 | 168 | 2.0 | 3.0 | 0.00 | 0.00 | 0.00 | 63 | 1016.8 |
| 20260503044601 | 44 | 149 | 2.0 | 2.0 | 0.00 | 0.00 | 0.00 | 64 | 1016.9 |
| 20260503044059 | 44 | 149 | 1.0 | 2.0 | 0.00 | 0.00 | 0.00 | 64 | 1016.8 |
| 20260503043555 | 44 | 149 | 2.0 | 2.0 | 0.00 | 0.00 | 0.00 | 64 | 1017.0 |
| 20260503043052 | 45 | 148 | 2.0 | 2.0 | 0.00 | 0.00 | 0.00 | 64 | 1017.0 |
| 20260503042549 | 45 | 157 | 2.0 | 3.0 | 0.00 | 0.00 | 0.00 | 63 | 1017.0 |
| 20260503042045 | 45 | 147 | 1.0 | 2.0 | 0.00 | 0.00 | 0.00 | 64 | 1017.1 |
| 20260503041542 | 45 | 146 | 2.0 | 3.0 | 0.00 | 0.00 | 0.00 | 64 | 1016.9 |
| 20260503041040 | 45 | 146 | 2.0 | 3.0 | 0.00 | 0.00 | 0.00 | 64 | 1017.1 |
| 20260503040537 | 45 | 145 | 1.0 | 2.0 | 0.00 | 0.00 | 0.00 | 63 | 1017.1 |
| 20260503040034 | 45 | 161 | 2.0 | 2.0 | 0.00 | 0.00 | 0.00 | 62 | 1017.1 |
| 20260503035530 | 45 | 155 | 2.0 | 3.0 | 0.00 | 0.00 | 0.00 | 62 | 1017.2 |
| 20260503035028 | 45 | 177 | 2.0 | 3.0 | 0.00 | 0.00 | 0.00 | 63 | 1017.2 |
| 20260503034525 | 45 | 148 | 1.0 | 2.0 | 0.00 | 0.00 | 0.00 | 64 | 1017.1 |
| 20260503034022 | 45 | 147 | 2.0 | 3.0 | 0.00 | 0.00 | 0.00 | 63 | 1017.0 |
| 20260503033519 | 45 | 147 | 1.0 | 2.0 | 0.00 | 0.00 | 0.00 | 65 | 1017.0 |
| 20260503033018 | 45 | 147 | 1.0 | 1.0 | 0.00 | 0.00 | 0.00 | 66 | 1017.0 |
| 20260503032515 | 45 | 147 | 1.0 | 2.0 | 0.00 | 0.00 | 0.00 | 64 | 1017.0 |
| 20260503032013 | 46 | 147 | 1.0 | 2.0 | 0.00 | 0.00 | 0.00 | 64 | 1017.2 |
| 20260503031511 | 46 | 147 | 1.0 | 2.0 | 0.00 | 0.00 | 0.00 | 63 | 1017.2 |
| 20260503031007 | 46 | 152 | 2.0 | 3.0 | 0.00 | 0.00 | 0.00 | 62 | 1017.2 |